Weather in Nowy Dwor Mazowiecki

Poland     52°25′52″N   20°42′15″E
temp.,
°C
wind,
m/s
gust,
m/s
humid.,
%
clouds,
%
prec.,
mm/h
press.,
hPa
HPBL,
m
26 february, fri
fri2601:00+7w48900 0.0 1025138
04:00+6w34940 0.0 102483
07:00+5w369519 0.0 1024131
10:00+7w4888100 0.1 1024379
13:00+6w5987100 3.4 1023428
16:00+7wnw41073100 0.4 1023604
19:00+5w61479100 0.4 1023647
22:00+4wnw51386100 0.0 1023705
27 february, sat
sat2701:00+5wnw61382100 0.0 1024772
04:00+4wnw71385100 0.0 1023695
07:00+4nw7118498 0.0 1025777
10:00+4nw71078100 0.0 1026845
13:00+6nw71068100 0.0 10281084
16:00+6nw6116652 0.0 10281020
19:00+3nnw6128126 0.0 1030515
22:00+1nw511910 0.0 1031359
28 february, sun
sun2801:000nw49948 0.0 1032303
04:00−1nw489427 0.0 1032264
07:000wnw388933 0.0 1033234
10:00+4nw47680 0.0 1032468
13:00+8nw57570 0.0 1032906
16:00+7wnw49640 0.0 1031649
19:00+3wnw38906 0.0 1032164
22:00+3nnw499384 0.0 1032291
1 march, mon
mon101:00+1nnw499444 0.0 1034246
04:000nw35951 0.0 1033103
07:000nw35951 0.0 1034112
10:00+6nnw34730 0.0 1035357
13:00+9nnw35610 0.0 1035806
16:00+9nw35650 0.0 1034275
19:00+5nnw33800 0.0 103641
22:00+4nnw23860 0.0 103722
2 march, tue
tue201:00+3wnw22870 0.0 103722
04:00+2w22860 0.0 103622
07:00+2w238814 0.0 103738
10:00+7w347012 0.0 1037289
13:00+10w35596 0.0 1036565
16:00+10wsw35640 0.0 1034293
19:00+6wsw23780 0.0 103424
22:00+5sw22820 0.0 103422